Theta_e
306 306 306 305 305 305 305 306 304 303 303 302 301 300 300 300 300 301 302 301 301 301 301 301 302 302 301 300 301 305 307 305 303 303 305 305 306 306 303 302 303 304 305 305 306 306 306 307 306 305 307 307 307 308 308 307 307 308 310 310 310 310 309 309 309 309 309 308 308 308 308 308 309 308 306 307 308 308 309 309 308 308 309 308 311 315 312 312
305 306 305 304 305 305 304 305 305 304 304 303 301 301 300 300 300 300 301 301 302 301 302 301 302 302 301 300 300 303 306 306 304 304 304 303 303 303 302 302 304 304 305 306 305 305 306 306 306 306 308 308 306 308 310 308 307 308 308 309 309 309 308 307 308 308 307 308 307 307 308 307 308 308 307 307 309 309 309 310 310 309 310 309 310 311 309 311
305 305 305 304 304 304 304 305 306 305 305 304 302 301 300 300 300 300 300 301 301 302 302 302 302 302 301 300 301 303 305 307 305 303 303 302 302 302 302 303 303 304 306 306 305 305 305 305 304 306 308 308 306 308 311 309 308 307 307 310 310 307 306 306 306 307 306 306 307 308 307 306 307 307 307 308 309 309 310 311 310 310 311 310 310 311 310 311
305 305 305 305 304 304 305 306 306 306 306 306 303 302 301 300 300 300 300 300 300 301 302 302 302 302 301 300 301 303 305 307 306 303 302 302 302 302 302 303 303 304 306 306 305 305 304 304 305 306 308 308 306 308 309 309 308 307 307 310 309 304 306 306 305 306 307 306 307 308 307 307 308 306 306 308 309 310 312 311 309 310 310 310 310 310 311 311
305 305 305 305 305 305 306 306 306 306 306 306 305 303 301 300 300 300 300 300 300 300 300 301 301 301 301 300 302 304 306 308 305 302 302 302 302 302 302 303 303 304 307 307 306 305 305 305 305 306 307 307 308 308 308 306 306 307 307 308 306 304 307 307 305 306 306 306 307 308 308 308 307 306 308 308 309 311 312 311 308 308 309 309 309 310 310 310
305 305 305 305 305 305 306 305 306 306 307 307 306 304 302 301 300 300 300 300 300 300 300 301 300 301 300 300 303 304 306 306 303 302 303 302 303 302 303 303 303 305 307 307 306 306 306 305 306 306 306 306 307 307 306 305 305 308 308 305 306 305 306 307 305 306 306 306 308 309 308 307 307 309 309 309 309 310 311 310 308 308 308 308 309 309 310 310
305 305 305 305 305 305 305 305 306 306 307 307 306 305 302 302 301 300 300 300 300 300 300 300 300 301 300 301 305 306 306 304 301 303 303 302 303 303 303 303 303 306 307 307 307 307 306 306 305 305 306 306 306 307 306 306 305 308 308 306 307 306 306 307 306 306 306 307 309 308 307 307 309 310 309 308 309 309 310 310 309 309 308 308 309 309 310 310
305 305 305 305 305 305 305 306 305 305 307 307 306 305 303 302 301 300 300 300 300 300 300 300 300 301 300 302 307 308 306 303 302 303 302 302 303 303 303 303 303 306 307 307 306 306 307 306 305 304 306 306 305 307 306 307 308 308 309 308 308 307 307 307 305 306 307 308 308 306 308 309 309 309 308 308 309 310 309 309 309 309 309 309 309 309 309 309
304 305 305 305 305 305 305 305 305 306 306 307 306 305 303 302 300 300 300 300 300 300 300 300 300 301 300 303 307 307 305 303 302 303 302 302 303 303 303 303 304 306 307 307 305 307 307 305 304 304 306 305 304 307 305 308 310 308 309 308 308 309 309 307 307 308 308 307 307 307 309 310 308 308 309 309 309 309 308 309 309 308 308 308 308 308 308 308
305 304 305 305 305 305 305 305 306 306 306 306 306 304 303 301 299 300 299 300 300 300 300 300 300 300 301 304 307 306 303 302 302 303 302 302 304 303 303 304 304 306 307 307 306 307 307 306 305 303 305 305 304 306 305 308 309 306 308 308 309 310 307 306 307 308 308 307 306 308 310 310 308 307 309 311 308 308 308 309 309 308 307 308 308 308 309 309
305 304 305 305 305 305 305 305 305 305 305 305 304 304 303 300 299 300 300 300 300 300 300 300 300 300 301 303 306 305 303 302 303 302 302 303 304 303 303 305 305 305 308 307 306 306 306 306 304 304 306 306 305 306 306 307 307 306 307 308 310 307 306 306 307 308 307 307 307 308 309 309 308 307 310 311 308 307 308 309 309 308 307 307 307 308 308 309
305 305 305 305 305 305 305 305 305 305 304 303 302 302 301 300 299 300 300 300 300 300 300 300 300 300 302 303 304 305 303 302 303 302 302 303 304 303 304 305 304 305 307 309 307 304 305 304 304 305 306 305 307 308 308 306 305 307 306 307 310 307 307 308 307 307 306 307 308 309 311 310 309 310 311 311 308 308 308 308 308 308 308 307 307 307 307 308
305 305 305 305 304 305 305 305 305 304 303 301 300 299 300 300 299 300 300 300 300 300 300 300 300 300 303 305 304 304 303 303 303 302 302 303 304 303 304 305 305 305 307 308 307 304 305 304 305 306 304 306 308 306 306 304 304 308 306 305 308 308 310 308 305 306 307 307 309 308 309 310 311 312 312 310 307 307 307 306 307 307 308 307 307 307 307 308
305 305 305 305 304 305 305 305 304 303 302 300 299 299 299 299 300 300 299 300 299 299 300 299 299 302 304 305 305 303 304 303 302 302 302 304 304 303 305 305 305 306 306 307 306 305 304 304 306 307 305 306 307 305 305 304 304 308 307 305 306 305 309 310 305 306 308 307 308 307 306 307 310 311 311 310 307 307 307 306 306 307 307 307 307 307 307 308
305 305 305 305 305 304 304 304 303 302 301 300 299 299 299 299 300 299 299 300 299 300 300 300 301 303 305 306 305 304 304 303 302 303 302 304 305 304 305 305 305 306 305 306 306 305 304 305 307 308 307 304 305 307 307 305 304 305 307 307 307 305 308 310 305 305 307 307 306 307 307 307 308 308 309 309 307 307 306 306 307 307 308 308 308 307 307 308
306 305 305 305 305 304 304 303 302 300 300 300 299 299 299 299 299 299 300 299 300 299 299 302 303 303 306 307 305 304 304 303 303 302 302 305 305 304 305 305 306 306 306 305 305 304 304 305 305 305 306 306 305 306 307 307 306 305 306 306 307 306 306 308 306 304 305 305 305 306 306 306 307 307 308 308 308 308 306 306 307 308 309 309 308 308 308 308
306 306 305 305 305 304 304 303 301 300 300 300 299 299 299 299 300 301 301 300 301 301 302 304 303 303 306 305 305 305 304 303 303 302 303 305 304 304 305 306 306 306 306 306 305 305 305 305 304 305 306 307 306 306 306 306 306 306 306 306 306 306 305 306 307 305 304 304 305 305 305 306 306 306 307 308 308 307 306 306 307 308 308 308 308 308 308 308
306 306 305 305 305 304 304 304 302 300 300 300 299 299 300 300 301 302 303 302 302 303 304 304 303 307 310 306 305 305 302 302 302 302 304 305 303 304 305 305 306 306 306 306 305 306 306 304 304 307 307 307 308 307 304 306 305 306 306 306 307 307 306 306 307 306 304 305 305 305 306 306 306 306 307 307 308 307 306 306 307 307 307 308 308 308 308 308
306 306 305 305 305 305 304 304 303 301 300 299 299 300 302 303 303 304 305 304 305 307 307 307 307 310 312 308 304 302 301 302 303 305 305 303 303 304 302 303 305 306 306 307 307 306 305 306 307 308 307 307 308 307 307 308 306 307 307 307 308 307 307 307 308 306 304 305 306 306 306 306 306 306 307 307 307 306 306 306 307 308 308 308 308 309 309 309
307 306 305 305 305 305 304 305 303 301 301 300 299 301 304 306 307 307 306 305 308 308 310 312 311 310 308 305 302 302 303 303 304 305 305 303 303 304 303 302 304 306 306 307 308 304 302 308 308 307 308 308 307 308 308 308 306 308 309 309 309 308 308 308 307 305 303 305 306 306 306 305 306 307 307 307 306 306 306 307 307 308 309 309 309 309 309 309
307 306 305 304 305 305 305 305 303 301 302 300 299 302 305 308 307 306 306 307 306 302 305 309 306 306 304 301 302 303 304 304 305 304 304 303 302 304 305 303 305 306 306 305 306 303 303 308 308 307 308 306 305 307 307 308 308 308 309 309 309 308 307 307 305 303 303 304 305 306 306 306 307 308 308 307 306 307 307 307 307 307 308 309 309 308 309 309
307 306 305 304 305 305 304 305 303 301 302 300 300 303 303 303 304 301 301 307 308 300 302 304 302 304 303 300 303 303 303 304 305 304 304 303 302 305 306 305 306 306 306 305 307 308 308 307 307 305 305 305 304 305 307 308 308 308 308 307 307 307 305 305 304 302 303 304 305 306 305 307 309 308 308 307 307 307 308 308 308 307 307 307 308 308 308 308
308 307 306 305 305 305 304 305 303 301 302 300 300 302 300 300 301 300 300 305 309 303 302 304 305 307 305 303 304 302 303 306 306 305 303 304 304 305 306 307 308 308 308 309 307 309 310 308 305 303 304 306 306 305 306 307 306 307 307 306 306 306 304 304 305 303 304 305 305 305 305 308 310 308 307 307 307 308 309 309 308 307 307 307 307 307 307 307
308 307 306 305 304 305 304 304 302 301 301 299 300 302 301 300 300 301 303 305 309 308 303 303 305 308 308 305 304 304 306 307 306 304 302 304 306 305 306 307 308 308 307 308 307 307 310 306 301 303 304 307 309 306 306 306 307 308 306 305 305 305 303 303 305 304 305 306 303 304 309 312 310 307 307 308 306 307 308 308 308 308 307 307 307 306 306 306
308 307 306 305 304 305 304 304 302 301 300 299 300 302 300 300 300 301 304 306 309 309 303 302 304 306 305 303 303 305 306 306 305 304 303 304 305 305 305 303 305 307 309 308 307 307 309 303 300 305 305 305 307 306 306 306 306 307 306 306 305 304 304 304 305 305 306 308 305 304 310 311 310 308 308 309 307 308 308 307 307 307 307 306 307 307 306 306
308 307 306 305 304 304 304 303 301 300 300 300 301 302 300 300 300 301 304 307 308 310 307 306 306 305 303 303 303 305 307 307 304 303 304 303 304 305 306 303 302 307 310 308 306 305 305 301 300 306 307 305 304 304 305 305 306 306 305 304 304 304 304 305 306 305 305 307 306 304 309 310 311 310 310 309 308 308 308 307 307 307 307 306 306 306 305 304
308 307 306 306 304 304 304 302 300 300 301 301 301 301 300 300 300 301 304 304 306 312 310 306 305 304 304 303 303 306 309 309 304 303 303 303 303 303 305 306 304 306 306 306 308 306 303 302 302 304 305 304 304 305 305 304 305 306 303 302 304 304 305 306 305 305 305 307 306 305 307 309 311 311 309 307 307 308 308 307 307 307 306 305 305 304 304 303
308 307 307 306 304 304 303 301 301 301 301 301 301 300 300 300 300 302 304 301 304 313 311 305 303 302 302 301 302 306 306 305 307 306 300 301 303 302 305 308 307 308 304 306 311 309 303 305 306 305 304 303 304 305 305 304 305 306 302 302 303 303 304 304 304 305 304 306 308 306 305 308 310 310 309 307 307 308 308 307 307 306 305 304 303 303 303 303
308 308 307 306 305 304 304 303 302 301 300 301 301 299 299 299 300 304 304 302 305 311 308 306 304 302 303 303 303 304 302 302 306 304 299 301 302 302 306 307 306 309 305 305 310 307 302 302 303 305 305 303 304 302 302 304 306 305 302 302 301 301 302 302 303 305 303 306 310 307 305 307 307 308 309 308 308 308 307 308 307 305 304 302 302 302 302 303
309 308 307 306 305 304 304 303 302 302 301 302 300 298 299 300 302 305 303 303 310 310 305 306 306 304 306 306 304 303 304 305 303 302 302 303 302 301 303 302 303 307 305 303 306 304 300 298 298 302 304 302 302 300 299 302 304 304 303 304 303 300 300 301 301 302 305 308 309 304 303 305 305 307 309 309 307 307 307 307 306 304 302 302 302 302 303 303
309 308 307 306 305 304 304 303 302 301 301 302 300 297 300 302 304 304 303 307 310 310 306 306 305 305 306 309 308 304 304 305 303 304 304 303 304 303 303 304 304 306 306 305 306 302 299 300 300 301 301 301 302 303 300 299 301 304 303 304 304 303 301 302 301 300 306 307 306 301 303 303 305 306 307 308 305 306 307 306 304 303 301 301 302 302 303 303
310 308 307 306 305 304 303 302 302 301 301 301 299 299 303 304 303 304 307 309 307 310 310 308 306 306 306 307 307 305 305 305 304 306 305 305 305 304 306 308 306 308 310 309 308 304 302 302 300 300 301 301 304 306 303 301 303 305 304 304 306 305 304 304 303 302 304 305 303 300 302 303 305 306 306 306 305 306 307 305 303 302 301 302 302 302 303 303
310 309 307 306 305 304 303 302 301 301 302 300 299 302 304 303 303 305 308 308 307 308 310 308 305 305 305 307 307 305 305 305 305 305 305 305 305 306 308 306 304 308 310 307 307 308 307 303 300 303 305 302 304 305 305 305 304 304 305 305 305 303 302 303 304 302 303 305 302 299 301 303 306 306 306 306 306 307 306 304 303 301 301 302 302 302 303 304
310 309 307 306 305 305 304 303 301 301 301 299 300 304 303 302 304 307 308 308 307 306 306 305 303 303 305 306 306 305 305 305 304 304 304 304 304 307 307 304 303 304 304 305 305 307 311 309 305 305 305 304 304 304 304 305 304 303 302 302 303 303 302 304 304 303 304 304 303 301 303 304 306 306 307 305 304 306 306 304 302 301 302 303 302 303 304 305
310 309 307 306 305 304 304 303 302 301 300 299 302 304 302 302 305 306 307 309 308 306 304 303 303 304 305 304 303 304 306 305 303 303 304 304 306 307 306 306 305 303 303 308 305 303 307 309 305 300 300 302 304 303 301 303 304 303 300 302 304 302 301 304 304 304 304 302 302 302 303 305 305 306 306 305 305 306 306 304 302 301 302 303 303 304 305 305
309 307 306 306 305 304 304 303 302 301 299 299 303 303 302 304 305 306 307 311 310 307 304 304 305 307 306 305 303 303 304 303 302 304 304 303 305 306 306 307 305 303 306 308 306 304 306 307 302 299 301 300 301 303 301 303 305 303 302 304 302 299 301 304 303 300 299 302 304 303 304 304 304 306 307 305 306 306 305 304 302 301 303 303 304 305 305 305
308 306 305 305 304 305 304 303 302 300 298 300 303 304 304 305 307 309 310 309 308 307 307 308 308 309 309 309 305 303 304 304 302 304 305 304 307 307 306 307 304 303 303 304 305 305 305 308 301 298 303 299 296 301 301 300 302 303 304 303 299 298 299 301 302 301 301 304 304 303 304 304 304 307 309 307 306 306 304 303 301 301 303 304 303 304 306 305
306 305 305 304 304 305 304 303 302 299 298 300 303 305 306 304 305 310 310 307 307 307 309 310 308 308 309 310 307 302 303 306 303 304 306 306 307 308 308 308 304 302 300 300 304 302 303 309 303 296 301 300 296 301 304 301 300 301 302 300 298 302 301 300 301 302 303 305 304 303 303 304 304 305 307 307 306 305 303 303 302 301 303 304 303 304 306 306
305 305 305 304 304 304 303 303 301 298 298 300 302 305 306 303 303 307 308 307 308 308 309 309 306 306 306 307 307 302 303 306 304 305 307 306 307 308 308 308 305 302 299 299 303 302 302 308 306 299 298 299 300 304 305 304 300 299 301 300 298 300 301 300 300 300 302 304 304 304 305 306 306 306 306 306 305 304 303 303 302 301 302 303 303 304 306 306
305 306 305 303 304 304 303 302 299 298 299 301 302 303 302 301 303 306 304 305 307 306 307 309 307 306 306 304 304 303 303 305 304 305 307 306 306 307 306 307 305 301 298 299 302 302 301 304 308 303 298 300 303 303 303 305 304 302 303 303 300 298 297 298 299 299 300 302 302 302 305 307 308 307 305 304 305 303 302 302 302 301 301 302 303 303 306 306
305 307 304 301 304 303 301 301 300 299 300 300 302 300 299 301 305 306 303 302 304 303 304 309 309 307 307 305 304 304 303 303 303 305 305 304 306 306 305 305 304 301 299 299 301 302 301 304 306 303 301 303 303 298 296 299 300 302 304 304 303 301 299 301 302 299 298 300 301 301 304 306 307 307 304 305 305 302 301 301 301 302 302 302 303 304 305 306
307 307 302 300 303 302 301 302 301 300 300 300 300 299 300 304 304 304 302 300 302 303 302 305 307 306 306 305 305 304 303 304 303 304 305 305 306 306 303 301 301 301 301 301 301 301 301 301 303 304 303 301 298 294 292 294 294 297 300 300 300 300 300 302 304 300 298 299 300 300 302 306 307 306 305 308 306 300 300 301 301 303 303 302 302 304 304 306
307 303 298 298 300 300 301 302 301 301 300 301 300 298 302 304 302 302 302 300 302 304 302 303 304 305 306 305 304 304 304 305 304 305 306 304 303 303 299 299 301 302 303 301 300 301 301 301 303 305 303 297 294 293 292 293 295 298 298 296 297 299 301 302 301 299 298 300 300 301 304 308 306 304 305 309 305 300 299 300 300 302 303 301 301 303 304 305
302 298 295 297 298 299 302 304 303 302 302 301 299 298 299 301 301 301 302 302 302 303 304 304 302 303 305 304 304 305 305 306 305 304 305 303 302 300 296 298 300 302 303 304 302 302 303 303 304 306 308 305 302 301 299 298 297 299 300 297 296 299 301 300 298 297 299 301 302 303 305 308 307 304 305 307 304 301 300 299 299 301 301 300 300 301 303 305
298 298 296 295 295 297 300 302 302 303 302 302 301 299 298 299 300 302 303 303 304 303 303 303 302 304 305 302 302 303 303 305 305 304 303 301 301 298 297 298 299 300 303 304 305 303 303 304 305 307 310 311 312 312 309 304 300 299 299 296 296 298 301 302 300 299 301 301 300 302 305 308 308 306 306 305 302 301 301 299 299 300 300 300 299 300 302 305
302 302 299 296 295 296 297 297 299 301 302 303 302 300 300 299 300 302 302 302 303 302 301 302 302 303 304 302 303 303 302 303 304 303 302 301 301 298 297 298 299 300 302 302 302 302 302 303 305 309 311 311 311 311 304 301 303 303 300 297 297 297 299 301 300 300 302 300 299 302 305 306 307 305 305 303 302 302 301 300 300 300 300 300 299 299 301 304
305 303 300 299 298 298 298 298 298 299 301 302 302 301 300 300 300 301 301 301 302 301 300 301 302 302 302 302 303 304 303 302 302 302 301 301 301 298 295 296 300 301 301 300 299 300 302 302 304 308 310 307 304 302 298 298 301 303 302 300 299 297 297 300 301 302 303 302 304 306 305 304 305 305 304 303 303 301 301 301 300 299 299 299 299 299 299 302
306 304 301 301 302 300 300 300 299 299 300 301 302 301 301 300 300 300 301 300 300 301 300 301 302 303 303 303 303 304 304 303 302 302 302 302 301 300 298 297 299 300 300 298 297 299 302 303 302 303 306 304 299 297 297 297 298 299 299 301 300 298 298 300 302 303 303 303 306 308 304 303 304 304 303 302 302 301 300 299 298 297 297 298 299 299 299 301
303 302 300 301 304 303 301 302 301 299 300 300 300 301 301 301 300 300 301 300 299 300 301 302 303 302 303 305 304 304 304 304 304 304 305 304 302 301 302 301 299 298 298 298 298 299 301 303 302 300 304 305 301 297 296 297 299 299 298 298 299 299 299 300 302 302 302 303 305 305 303 302 301 301 301 301 301 300 298 297 297 297 298 298 298 298 298 300
304 304 302 300 302 302 302 302 301 300 300 300 300 301 300 301 301 301 301 301 301 300 300 302 303 302 303 305 305 304 304 305 306 306 304 304 303 302 303 304 301 298 298 298 299 298 298 302 303 300 303 305 301 296 294 295 298 301 300 298 298 299 299 299 300 300 300 300 301 300 300 299 300 300 300 299 299 298 298 298 298 298 298 297 297 298 298 300
305 305 304 302 301 302 302 302 301 301 301 300 301 302 301 301 301 301 301 301 302 302 301 302 303 303 302 304 305 305 305 306 308 308 305 304 305 304 303 303 303 301 299 298 299 299 296 299 299 299 302 305 299 295 296 297 297 300 303 301 298 299 299 299 299 299 299 300 300 298 299 300 302 301 300 299 298 298 300 300 298 298 298 297 297 297 298 299
304 303 304 305 306 304 303 302 302 302 302 302 302 303 302 302 301 301 301 301 301 303 302 302 303 302 301 302 303 305 307 307 306 305 303 304 305 304 302 303 304 303 300 298 298 298 297 299 299 298 302 303 297 295 299 301 303 307 309 308 303 299 298 297 297 297 297 299 300 300 302 304 304 303 302 301 300 301 302 301 299 298 298 298 297 297 297 298
Wind_Speed
4 4 4 5 5 5 4 5 5 5 6 6 5 6 6 5 6 6 7 6 8 9 9 10 12 13 13 14 11 7 7 5 9 15 11 7 9 11 15 15 15 18 16 14 13 8 6 7 7 4 1 2 3 2 1 3 2 2 2 2 2 1 1 1 1 1 2 5 5 3 2 5 9 5 3 6 7 8 9 9 9 8 8 9 7 5 9 11
4 5 5 5 6 6 4 5 6 6 6 6 6 7 7 7 7 7 7 8 9 9 10 10 12 13 13 14 12 9 7 3 3 11 9 8 10 11 15 14 14 17 16 13 13 9 5 5 7 5 1 1 2 1 0 2 3 1 1 3 2 1 1 0 2 2 3 6 8 7 4 4 7 6 5 7 9 8 11 10 6 6 5 5 5 5 9 12
4 5 6 5 5 6 5 6 6 6 7 7 7 8 8 8 8 8 8 8 9 10 10 10 11 12 13 14 13 10 6 2 1 5 7 9 11 12 14 13 14 16 15 11 9 7 4 3 4 2 1 1 2 1 1 2 2 0 1 4 1 2 2 2 4 4 5 7 9 9 4 4 6 5 4 6 12 12 11 8 3 5 5 3 4 7 10 11
4 5 5 6 6 6 6 7 7 7 8 8 8 8 8 8 8 8 8 8 9 10 10 10 10 11 13 14 13 8 2 2 1 3 6 9 11 13 13 12 13 14 14 10 7 7 4 4 3 3 1 1 2 1 1 3 2 1 1 3 3 2 2 1 3 3 4 4 7 8 6 8 6 2 5 5 10 11 6 3 3 7 9 9 9 10 11 11
4 5 5 6 6 6 6 7 7 8 8 9 9 8 8 8 9 8 8 9 9 9 9 9 9 10 13 13 11 5 1 2 1 2 6 9 11 13 12 10 13 13 12 8 5 6 5 4 3 3 1 1 1 1 1 4 3 1 1 2 2 0 2 1 1 1 3 4 6 7 7 8 5 4 7 7 8 9 4 2 3 8 9 11 11 11 10 10
5 5 6 6 6 7 7 7 8 9 9 9 9 9 8 8 9 9 8 9 8 8 8 8 9 10 12 12 9 3 2 1 2 2 6 9 11 11 10 9 12 12 9 6 4 4 4 3 2 3 2 2 1 1 2 3 2 2 1 0 1 2 4 2 1 1 3 7 8 5 5 6 8 9 6 8 13 12 9 7 8 11 11 11 10 10 9 7
6 6 6 7 7 7 8 8 8 9 10 10 10 9 8 8 8 8 8 8 8 8 7 7 8 9 11 11 6 1 1 1 1 2 6 8 10 9 8 9 10 9 7 6 5 2 4 3 3 3 2 3 1 1 2 2 1 3 1 1 2 3 6 5 3 5 5 10 8 3 4 6 10 8 2 8 14 13 13 10 10 11 10 8 8 8 8 7
7 7 7 7 7 8 8 9 9 9 10 11 11 10 8 8 8 7 7 8 8 8 7 6 7 8 10 9 3 2 1 1 1 2 5 7 8 8 8 9 9 9 8 9 5 1 2 4 4 3 1 3 1 2 1 1 2 2 1 0 1 2 6 6 6 8 8 8 5 2 6 8 9 7 6 12 13 7 8 7 5 7 7 6 7 8 9 9
8 8 7 8 8 8 8 9 9 10 10 11 11 10 8 8 7 6 7 7 7 7 6 5 6 7 9 6 1 3 1 4 2 2 4 6 7 7 8 9 8 8 8 10 6 1 0 1 3 2 2 5 2 2 1 2 1 1 3 3 5 6 6 6 7 7 6 5 1 2 7 8 5 4 8 11 7 3 4 5 3 4 7 8 8 8 8 8
9 8 8 8 9 9 9 9 10 10 10 11 11 10 9 7 6 6 6 6 6 6 5 4 5 6 6 3 1 3 2 5 2 1 4 6 6 5 7 9 7 6 5 7 8 4 2 3 4 2 3 5 3 2 0 2 1 1 4 7 9 8 6 5 5 5 6 5 3 4 9 9 2 2 5 4 2 3 5 6 4 5 9 9 8 8 7 7
9 9 9 8 9 10 10 10 10 10 10 10 11 10 8 7 5 5 6 6 6 5 4 3 4 5 5 1 3 2 3 5 2 1 4 6 5 5 8 8 5 5 4 5 7 5 5 5 7 3 1 3 4 3 1 1 1 1 4 7 7 5 4 4 5 5 5 3 2 6 11 8 3 4 6 3 2 3 6 8 8 8 9 9 8 6 6 6
10 10 9 9 9 10 10 11 11 11 10 10 10 8 8 7 5 5 6 6 5 4 3 3 3 4 3 1 3 2 4 5 2 1 4 5 4 4 8 6 5 5 3 2 4 4 5 5 6 2 2 4 3 2 2 2 1 1 1 5 4 2 4 4 3 3 3 2 3 8 8 3 5 7 6 4 1 4 7 11 11 9 8 7 7 5 5 5
11 10 10 9 10 10 11 11 11 10 9 9 9 8 7 6 5 5 4 5 5 4 3 3 3 3 2 2 2 4 5 4 2 1 4 5 3 4 6 4 5 6 3 3 3 3 4 3 3 3 4 3 2 3 3 2 2 2 1 2 3 3 4 5 2 4 4 2 6 8 6 2 6 9 6 3 2 6 10 13 11 8 6 6 6 5 5 5
12 11 11 10 10 10 11 12 11 11 9 8 8 7 6 6 5 4 4 4 4 4 3 3 3 1 1 1 2 5 5 4 4 2 4 5 3 2 4 4 4 4 3 4 3 3 3 4 4 5 4 1 3 4 3 2 1 2 1 1 1 3 1 5 0 4 3 1 5 6 5 6 5 6 4 3 2 7 13 14 10 8 6 5 5 5 6 6
13 12 11 10 10 10 11 12 12 11 9 9 8 8 7 6 5 4 4 4 3 3 2 3 2 1 2 2 2 5 5 5 5 3 3 3 2 1 2 3 3 3 3 3 3 4 3 3 3 3 2 1 3 3 2 2 1 1 2 1 0 3 3 2 2 2 3 2 4 4 5 8 9 7 2 3 3 8 13 13 10 8 7 6 5 5 6 7
14 13 12 11 10 10 11 12 13 11 10 10 9 8 7 5 5 4 4 3 3 3 2 3 2 1 3 1 3 5 4 5 5 3 2 2 1 1 1 3 4 4 4 3 3 2 2 1 0 1 1 1 1 1 2 3 2 1 1 4 3 4 7 4 3 3 2 4 4 3 5 9 9 8 7 5 7 9 11 12 10 9 7 6 6 5 6 7
15 13 12 11 11 10 11 13 13 12 10 10 9 8 7 6 5 5 4 3 3 2 1 1 1 2 3 1 3 3 4 5 4 3 1 1 2 1 2 3 4 4 4 2 2 1 2 0 1 1 1 1 0 1 3 3 2 0 0 2 3 4 6 6 1 3 2 4 5 5 7 13 14 13 15 12 8 8 9 10 10 9 8 7 6 6 7 8
15 14 13 12 12 12 13 15 14 12 11 10 9 7 6 6 6 5 5 3 1 0 1 1 2 2 3 3 3 3 5 5 3 2 2 1 2 2 3 3 3 4 2 0 2 2 2 1 1 1 1 1 1 1 3 4 3 3 3 3 4 5 6 8 5 2 4 6 7 8 10 15 18 15 14 12 7 7 8 8 8 9 9 9 7 8 8 9
15 15 14 13 14 14 15 15 14 13 12 10 8 6 5 5 5 5 3 3 2 1 1 2 4 1 1 2 2 3 5 5 3 3 2 2 1 3 3 3 4 2 1 1 1 0 2 1 2 2 1 0 2 1 2 1 1 3 3 3 5 6 6 10 8 3 6 9 9 10 11 14 18 16 15 13 7 6 8 8 7 8 9 9 8 9 9 10
16 15 14 14 15 15 15 16 15 13 12 10 7 5 3 2 3 2 2 4 4 2 1 2 3 1 1 1 3 5 5 4 3 3 2 2 2 4 2 2 2 1 1 1 1 2 1 3 3 1 0 2 2 2 2 2 1 2 3 4 6 7 8 9 6 1 4 8 8 8 12 16 17 16 15 12 7 7 9 9 8 9 9 9 9 10 11 12
17 15 14 15 15 15 15 16 15 12 11 10 7 4 2 2 2 1 1 4 5 3 1 2 2 2 1 2 5 6 4 2 2 3 1 2 2 4 1 1 1 1 1 1 2 0 1 4 1 2 3 4 4 4 3 2 2 2 4 5 5 5 7 7 3 0 3 6 8 8 13 16 15 14 13 8 6 8 9 9 10 11 10 9 10 12 12 11
18 16 15 15 14 14 15 16 15 12 11 10 7 5 4 3 2 0 0 3 4 3 2 1 2 2 1 2 5 6 3 2 3 4 2 1 1 1 1 2 2 1 1 1 3 2 2 2 2 3 4 6 5 4 3 2 2 3 3 4 5 2 4 5 2 1 1 4 8 11 13 15 14 12 10 6 6 7 6 7 9 10 10 10 11 11 12 12
19 17 15 14 13 14 14 15 15 12 11 10 8 7 4 2 1 1 1 3 2 2 3 2 3 3 2 2 6 6 3 3 4 4 2 1 2 1 1 2 1 1 1 1 1 3 3 1 4 3 3 5 4 3 4 2 3 4 4 4 5 3 3 3 2 3 7 6 8 11 12 12 9 6 7 5 4 5 6 7 9 9 10 11 12 11 12 13
19 17 16 14 13 13 14 15 14 12 12 11 13 11 5 3 2 0 1 2 2 1 3 3 3 3 3 3 7 7 2 1 2 3 1 1 3 1 1 2 1 2 2 1 1 4 3 2 3 3 3 3 3 4 5 3 3 4 5 5 5 4 3 4 4 9 11 5 4 10 9 6 2 2 5 3 2 4 7 7 10 9 8 9 10 11 12 13
20 18 16 15 14 13 12 12 10 11 10 9 13 12 7 5 2 0 1 2 3 1 0 3 3 4 5 5 6 5 1 1 1 1 1 0 2 2 2 2 1 2 3 2 1 4 1 2 2 4 3 3 3 3 4 4 3 2 4 5 4 5 5 6 7 10 8 3 1 5 6 2 1 3 7 4 2 6 6 6 9 8 7 9 11 14 15 15
21 18 16 15 14 12 9 6 5 6 6 7 9 8 7 6 3 2 1 2 4 2 2 3 3 5 8 4 2 3 2 2 1 3 3 1 1 1 2 2 1 0 3 2 1 2 1 2 2 3 3 3 3 4 3 4 3 3 1 2 2 3 5 7 6 5 5 4 2 2 5 5 4 5 5 3 4 7 7 6 7 7 9 12 14 15 15 16
22 20 17 14 13 12 6 3 3 3 3 5 8 8 7 6 3 2 1 3 4 3 3 1 1 4 7 2 1 4 2 1 3 3 2 2 1 1 1 2 2 0 2 1 1 1 3 4 3 2 3 3 3 3 4 5 4 2 2 0 1 3 6 6 3 2 3 5 3 1 2 5 6 5 1 1 6 9 9 8 7 9 13 15 16 15 15 18
23 21 18 13 12 14 10 4 2 4 3 4 5 8 6 4 3 1 1 4 3 3 4 0 1 3 3 1 0 1 0 0 3 2 2 2 1 1 2 3 2 2 2 2 3 0 3 4 5 5 3 3 2 1 4 6 3 1 3 1 2 2 4 2 2 2 2 4 2 2 2 4 7 6 2 2 5 8 7 7 8 11 14 15 16 15 17 20
25 22 17 14 14 15 14 10 6 6 5 3 4 8 6 4 3 0 1 4 2 3 3 2 4 3 2 2 1 1 1 1 1 1 1 1 2 2 0 1 3 4 2 2 3 1 1 2 3 4 3 2 1 2 3 5 2 1 3 2 3 2 1 1 0 1 1 3 1 3 2 4 6 8 4 1 3 6 6 6 8 11 13 13 14 15 17 17
26 23 18 17 17 15 14 13 13 10 3 2 6 7 5 3 2 3 5 5 2 2 2 2 3 2 4 5 2 0 1 0 2 1 1 1 2 3 1 1 2 3 2 1 2 0 1 1 2 2 1 1 1 2 1 3 3 3 3 3 3 3 2 2 1 1 2 3 2 4 3 4 5 6 3 1 2 4 6 7 9 13 15 15 13 14 15 15
27 24 21 21 19 17 11 7 13 13 6 4 8 7 3 1 0 5 8 4 1 1 2 3 1 3 6 5 3 2 1 1 1 1 2 2 2 2 2 1 2 2 2 2 2 1 1 2 2 1 0 1 0 1 1 0 2 3 3 4 3 2 2 2 2 1 3 2 3 2 2 1 4 4 4 3 1 1 4 7 10 14 15 16 14 13 15 14
27 25 25 23 20 18 12 3 5 11 10 8 9 5 2 2 4 6 4 2 1 2 3 3 1 3 5 2 1 3 2 2 2 2 2 2 2 3 2 2 2 2 3 2 1 1 2 2 0 0 1 2 2 2 1 2 2 3 3 3 4 2 1 1 0 2 3 1 3 1 2 3 7 7 9 10 3 1 3 5 8 12 13 14 14 14 14 12
29 27 26 25 21 19 15 8 3 7 12 11 7 2 2 5 8 7 5 3 1 1 2 3 2 3 5 3 3 3 1 1 2 2 1 1 2 3 1 1 1 2 2 1 0 1 1 1 1 2 2 2 3 2 1 1 0 2 2 3 3 3 4 4 2 2 3 1 3 3 1 4 6 6 6 7 3 2 4 6 6 9 11 13 13 14 13 12
30 29 29 26 22 18 16 13 8 7 13 12 5 3 4 9 5 7 10 5 1 1 2 3 4 3 3 2 1 2 2 2 2 2 2 2 2 3 2 3 3 1 1 1 1 0 2 1 2 3 1 2 3 2 2 1 1 1 1 3 1 1 2 4 3 3 5 5 1 3 2 3 4 3 1 1 3 5 6 5 6 8 10 11 11 12 12 12
32 32 31 27 24 20 16 14 10 9 12 9 4 4 10 12 3 5 8 4 1 1 2 2 3 4 2 1 1 2 2 1 2 2 3 4 3 3 3 5 6 4 3 3 2 2 3 3 2 2 1 1 2 0 1 0 1 1 1 2 1 1 2 2 2 2 2 5 3 2 3 3 4 7 5 1 4 6 6 5 6 8 9 10 10 11 11 11
32 31 30 27 26 23 18 15 11 10 10 6 5 9 12 8 3 3 4 4 4 5 6 2 2 4 3 2 2 2 1 0 3 3 3 3 3 3 2 2 5 6 3 2 3 2 2 1 3 2 1 1 1 0 1 2 0 2 1 1 1 1 2 1 1 2 3 2 3 1 4 5 5 7 3 3 4 6 6 6 7 7 9 10 10 10 11 12
31 28 24 24 27 24 19 16 11 9 6 4 8 12 7 3 4 4 3 4 3 5 7 4 3 5 4 3 3 4 3 2 3 3 3 3 3 4 4 1 3 4 2 1 2 2 1 1 2 1 2 3 2 1 2 3 2 1 1 3 3 1 1 0 2 1 2 4 2 1 5 6 4 2 2 3 5 8 9 8 7 8 10 10 10 11 12 12
28 23 15 19 27 25 20 16 13 9 3 3 10 12 4 4 4 3 4 4 4 4 4 5 5 3 4 4 3 4 4 3 5 4 3 3 2 3 6 3 1 2 1 2 1 1 1 2 1 1 1 3 1 3 2 3 2 2 1 4 2 1 1 1 2 2 3 5 4 2 4 5 4 3 3 4 6 10 11 9 7 8 10 10 10 10 12 12
23 13 4 14 27 24 22 20 13 6 2 5 11 9 2 3 3 2 3 3 4 4 4 5 4 1 2 3 2 4 4 4 6 4 3 4 2 2 4 2 2 2 0 1 1 1 1 2 1 2 0 1 2 4 3 3 3 2 1 2 0 2 1 0 1 1 2 5 6 3 3 3 4 3 4 5 5 8 10 8 6 7 7 8 9 9 9 10
17 5 2 16 28 25 25 23 12 4 5 5 7 6 2 3 3 1 2 1 2 3 3 4 4 2 3 2 1 3 4 3 5 4 2 2 1 2 3 2 5 5 0 1 1 1 2 1 1 2 1 2 3 2 2 2 4 3 3 3 2 1 0 1 0 1 2 3 3 3 5 6 3 2 4 5 3 5 8 7 5 4 5 6 8 8 7 7
10 3 2 19 32 29 25 17 6 5 5 4 4 3 1 2 2 1 1 1 1 0 1 2 4 4 4 2 1 3 4 3 4 3 2 3 2 2 2 2 7 8 3 2 2 2 2 2 2 2 3 4 1 2 2 2 1 1 3 4 4 3 2 2 2 0 1 2 2 2 6 9 4 1 3 3 1 3 6 6 4 2 3 6 7 8 7 6
8 2 2 21 38 34 20 7 3 5 4 5 3 2 1 1 2 3 2 1 0 1 1 1 2 3 4 3 2 4 5 3 3 3 3 4 2 1 1 1 5 7 3 2 1 1 1 1 2 2 2 1 2 3 2 2 1 1 1 1 2 3 3 3 2 2 2 1 0 1 4 7 2 2 3 3 3 2 4 5 3 1 2 5 6 7 6 5
7 2 2 20 36 29 12 3 3 4 5 4 1 2 3 1 2 3 3 3 2 2 2 1 2 4 3 2 3 4 5 4 5 4 3 3 2 1 2 1 4 4 2 1 2 2 2 2 2 2 0 2 2 2 1 2 1 2 1 2 3 2 1 1 0 1 2 3 3 2 4 7 2 3 3 3 3 4 3 4 3 1 1 4 5 7 6 4
3 3 3 13 25 17 7 6 7 9 8 5 4 4 3 1 3 4 5 6 4 3 4 3 3 3 3 2 4 6 6 5 5 4 2 2 2 2 2 2 3 3 2 1 2 4 4 2 3 2 2 1 1 2 2 1 2 4 2 3 3 4 5 3 2 1 2 6 7 4 6 7 2 4 4 4 4 6 3 2 2 0 1 3 4 5 6 4
3 3 4 4 10 7 4 4 4 7 11 11 10 9 6 4 4 4 5 5 4 3 4 3 2 2 3 3 3 3 5 3 2 3 2 2 1 2 3 2 2 2 1 3 2 3 3 2 3 3 4 5 4 2 1 2 3 2 2 4 5 7 7 3 3 2 4 5 7 6 7 7 6 6 5 3 4 8 4 1 1 1 2 3 4 5 5 4
3 4 3 2 1 3 2 1 1 3 9 11 8 8 11 9 4 1 4 5 4 5 2 0 2 3 3 5 4 4 4 1 1 2 2 3 2 2 3 2 2 2 2 2 2 1 2 1 3 5 6 5 2 0 1 2 3 3 4 7 9 8 6 3 2 4 4 4 6 10 10 10 15 14 10 6 6 10 8 3 2 2 1 2 4 5 5 5
3 3 7 5 2 5 4 3 4 3 4 7 6 6 12 13 7 3 6 5 3 5 3 0 3 6 6 8 6 4 5 2 1 3 2 2 1 1 1 0 1 2 3 1 1 1 2 2 4 6 8 5 2 1 2 2 4 5 6 8 11 11 8 7 8 6 5 3 6 8 8 10 14 13 12 11 8 10 11 6 4 4 3 3 4 5 6 6
5 2 7 9 5 7 9 9 12 10 6 6 5 6 11 14 12 9 7 2 0 4 6 3 4 10 12 13 9 5 5 4 2 4 3 3 3 3 2 1 1 1 2 1 1 1 2 3 2 3 6 5 1 2 3 3 5 5 7 9 11 13 13 14 16 9 8 8 11 3 5 10 13 14 15 13 8 9 12 8 4 5 5 5 5 6 7 7
4 3 3 7 4 8 13 13 14 15 12 7 5 7 11 15 17 13 4 4 2 5 7 9 10 11 11 12 11 8 8 8 6 5 5 4 4 4 3 2 3 2 2 3 1 1 2 2 1 2 4 5 3 3 3 5 5 6 9 12 12 14 16 17 17 12 10 15 17 9 7 12 15 16 18 15 9 8 11 7 5 6 6 4 5 7 8 7
7 4 5 5 3 5 9 8 9 12 12 10 9 10 11 15 19 13 4 5 8 4 4 12 12 10 11 11 12 13 14 13 10 8 9 7 4 4 4 3 4 4 3 4 2 1 3 2 3 2 3 4 2 1 1 4 5 6 10 11 12 13 13 14 15 9 8 14 16 10 11 15 16 15 15 13 8 6 9 7 5 6 5 4 6 7 8 8
6 8 11 8 4 6 8 7 9 10 9 10 13 12 12 17 18 12 6 10 13 11 12 20 16 9 9 12 14 18 15 13 10 9 12 12 7 6 5 4 8 9 7 5 3 2 3 1 2 2 2 3 0 1 1 2 3 8 12 12 14 13 9 11 12 10 11 12 7 3 7 12 12 7 5 7 5 6 10 7 4 5 5 5 6 7 8 8
6 5 9 8 7 9 9 8 10 11 9 12 17 15 15 18 14 11 8 9 13 14 15 19 17 10 8 14 20 19 10 10 6 3 5 5 2 2 3 5 8 9 9 8 3 2 4 4 3 3 3 2 0 0 1 2 4 8 9 8 13 15 11 8 8 12 16 13 6 6 9 7 2 1 1 3 5 7 9 6 4 5 5 5 6 7 8 8
Wind_Direction
326 328 322 311 315 307 301 316 299 291 298 283 271 269 265 271 277 283 292 296 304 312 322 336 339 344 349 350 352 342 335 332 12 37 53 29 3 351 342 340 341 346 349 359 17 36 40 37 36 29 106 60 4 344 9 13 355 268 245 283 287 291 329 58 253 307 322 304 296 298 330 300 299 309 339 311 260 251 269 275 267 257 254 261 276 286 301 320
312 322 323 311 319 313 295 316 311 303 306 291 275 267 264 266 269 275 282 290 297 303 312 326 333 337 343 345 347 339 329 296 15 39 39 7 1 353 344 345 343 347 356 0 13 27 35 35 20 10 45 68 4 345 310 356 340 289 250 276 284 354 10 23 294 292 275 295 305 300 304 281 295 322 341 311 288 281 283 283 268 256 248 234 249 280 303 317
305 315 323 317 320 323 314 324 324 319 314 300 282 268 262 263 265 270 274 284 292 298 308 318 328 333 336 342 341 337 336 245 270 20 11 355 357 354 345 346 344 350 360 356 4 20 52 74 24 17 65 55 33 347 309 350 326 341 275 264 318 21 311 268 261 264 278 299 301 302 329 290 286 308 302 294 296 289 276 276 277 291 301 288 291 308 315 316
303 308 319 323 324 329 327 325 324 325 322 309 292 274 265 264 264 268 270 277 286 293 304 315 325 330 333 338 337 338 348 202 225 351 349 354 354 352 346 345 347 353 358 349 352 15 64 101 59 61 90 97 60 326 326 8 351 119 253 290 48 40 300 248 225 265 288 290 292 301 315 295 290 272 259 280 297 287 269 247 270 303 315 315 315 318 319 315
296 306 310 319 324 328 324 322 326 326 326 320 306 289 274 268 267 268 272 275 283 291 301 313 322 329 332 334 332 339 199 216 62 6 346 353 349 350 347 346 350 355 353 343 354 13 54 95 90 91 67 96 83 297 68 28 357 218 229 333 35 214 294 8 156 280 294 284 285 290 294 297 297 252 247 249 263 277 324 41 291 300 310 311 311 308 309 309
288 299 304 312 318 322 322 323 328 328 327 325 316 302 284 275 271 268 272 277 281 290 299 311 321 327 332 332 328 319 233 274 45 358 349 351 347 351 351 349 354 353 345 357 35 30 49 71 118 112 78 104 52 3 64 28 339 270 180 341 257 228 270 312 5 283 292 284 281 286 289 296 286 272 254 238 244 261 292 316 303 298 300 303 301 294 294 296
283 291 296 304 310 316 322 321 323 327 327 325 320 308 291 281 276 270 271 277 282 291 300 310 320 328 333 332 325 292 263 11 55 342 351 346 345 353 353 354 355 351 351 22 36 45 63 61 104 115 109 112 116 74 56 2 282 265 249 166 254 234 259 287 315 294 287 278 279 296 282 272 271 284 301 250 254 265 284 298 297 294 294 290 285 287 291 288
279 286 291 296 304 310 315 319 320 323 325 325 322 312 296 285 279 275 271 276 283 289 298 310 319 329 338 336 313 257 237 144 167 342 347 338 347 356 357 358 358 2 21 36 29 197 87 60 99 149 161 93 162 157 56 291 178 228 283 320 267 249 265 288 300 286 280 276 273 224 254 260 261 289 295 268 273 280 286 297 292 293 296 280 275 283 289 289
275 282 288 291 297 304 309 315 317 320 325 324 321 314 300 286 280 279 276 277 281 287 295 307 320 330 338 344 302 274 204 150 170 339 337 337 352 357 359 1 6 15 29 43 34 299 146 104 129 195 145 100 177 152 56 269 147 256 307 302 279 283 290 300 292 273 274 275 245 231 265 269 255 287 273 257 274 299 280 283 275 291 294 287 283 281 280 283
273 279 284 288 294 301 306 310 314 319 322 322 320 317 308 293 283 279 278 278 278 284 289 295 317 333 337 346 261 278 164 152 178 333 342 347 354 349 357 4 21 33 35 45 33 27 71 138 141 162 119 108 161 142 199 266 55 306 296 290 278 287 297 297 279 266 282 269 231 274 287 284 220 215 265 216 183 267 287 285 273 288 292 292 287 286 282 271
272 276 280 284 291 298 304 306 311 315 318 322 320 316 313 303 287 279 275 277 274 275 281 294 314 330 340 317 253 267 158 161 185 351 352 355 353 346 2 14 42 45 37 47 40 56 91 127 137 149 133 127 148 142 180 234 16 295 298 288 275 286 279 261 263 272 295 276 228 277 283 283 177 204 248 175 154 270 296 297 293 295 296 297 291 289 288 274
271 275 278 282 288 295 302 304 307 311 316 323 322 319 318 308 292 279 271 271 271 264 264 286 315 332 343 251 245 214 162 168 182 354 353 358 3 3 11 30 70 51 37 66 57 76 94 137 158 134 106 153 154 135 153 146 286 203 312 297 284 272 222 214 262 272 283 316 309 289 280 252 183 215 227 168 234 293 294 298 300 297 294 298 298 293 286 284
272 273 275 280 288 294 300 303 305 309 315 324 328 323 313 307 296 279 267 267 265 255 255 279 312 336 321 250 200 173 174 180 194 321 348 359 14 17 21 55 86 61 62 100 102 92 79 141 168 98 113 167 115 98 139 136 249 206 138 307 295 278 207 176 268 279 253 303 325 310 304 265 203 209 201 162 268 299 300 301 302 297 294 293 295 294 287 280
271 271 273 277 285 292 297 300 302 305 313 322 320 312 304 296 288 276 265 262 259 251 255 281 301 315 256 251 161 177 189 195 206 260 332 358 25 28 38 79 88 66 85 97 102 87 74 121 129 110 112 47 89 128 167 150 236 247 171 190 294 313 235 148 181 305 266 275 336 322 293 290 275 239 209 175 264 300 304 303 299 294 292 288 287 284 279 269
266 269 269 273 280 289 295 297 300 303 307 313 310 303 296 283 276 273 265 259 257 253 267 289 286 256 245 257 175 188 196 201 211 240 307 355 41 42 58 102 79 81 116 104 98 82 89 138 135 113 99 81 141 166 210 159 139 320 288 270 62 309 302 128 115 332 322 326 320 304 275 289 299 291 230 170 274 303 303 300 298 291 284 281 281 272 265 263
264 267 264 269 275 283 295 300 300 300 302 307 305 297 289 278 266 262 266 264 259 260 284 290 249 217 262 254 154 187 207 206 212 243 285 349 8 28 131 129 75 96 124 118 126 88 60 126 26 327 90 158 183 304 262 197 161 99 313 306 307 296 312 332 119 128 355 335 293 252 276 289 289 300 301 280 298 308 299 295 296 295 288 280 276 267 260 259
261 265 264 266 270 280 301 309 306 299 298 303 300 294 284 271 259 258 265 266 274 273 273 273 201 235 257 167 158 194 189 190 210 245 241 353 358 47 134 137 87 104 117 118 180 240 315 350 255 270 72 90 167 293 283 291 300 124 44 294 284 275 296 305 240 126 346 303 276 250 256 271 278 295 300 297 304 301 290 291 296 300 295 286 277 268 262 257
255 258 263 265 266 280 301 312 312 300 296 303 300 291 278 267 260 259 254 241 276 360 225 180 175 255 238 170 173 168 147 166 199 207 191 9 22 93 117 130 117 123 122 192 213 255 300 290 229 218 126 108 63 360 313 329 310 279 286 289 293 275 259 272 280 36 355 296 277 272 260 271 285 295 295 294 295 283 279 281 287 290 286 284 278 271 266 258
253 251 258 264 266 279 297 308 313 303 297 302 299 292 285 280 263 251 232 192 192 223 237 183 179 241 270 160 136 126 139 158 169 170 166 7 56 122 91 100 117 129 205 241 164 56 314 263 225 242 203 120 56 36 344 355 273 260 267 269 280 281 269 272 281 21 1 303 275 267 272 284 294 296 295 296 286 264 267 267 268 267 267 268 266 264 260 257
258 252 253 260 266 279 292 304 310 303 298 302 307 303 282 259 252 243 185 194 219 235 20 175 186 246 325 138 133 137 142 146 149 170 174 7 114 141 104 90 124 165 212 278 333 43 325 261 244 262 74 116 142 140 76 88 180 236 240 249 251 265 280 282 283 49 19 316 276 269 288 290 290 288 290 294 283 257 255 254 254 253 255 256 257 260 259 258
258 257 255 255 264 278 288 301 306 297 294 302 307 297 252 216 255 292 190 225 224 223 280 194 204 266 233 144 153 157 146 135 150 167 172 6 125 160 165 142 198 210 125 295 284 297 253 263 247 94 94 104 133 138 118 141 180 224 238 262 262 252 269 288 311 192 29 338 291 298 304 289 285 286 287 287 268 253 249 250 254 257 260 261 262 264 265 265
252 256 257 253 260 276 286 297 301 290 285 293 288 262 267 274 256 244 320 269 230 201 228 187 207 246 212 171 170 163 151 171 181 167 162 325 183 195 175 154 225 260 77 246 262 270 256 244 117 103 108 105 107 128 151 198 211 232 240 266 283 279 269 286 34 133 302 317 298 316 314 292 288 289 284 272 249 254 259 259 265 271 272 274 277 280 285 286
246 251 254 250 258 272 283 294 294 281 275 278 263 247 260 260 183 126 197 278 280 196 187 195 203 188 177 209 183 165 171 203 192 170 154 225 193 203 172 162 184 175 210 251 288 301 290 146 117 125 142 131 122 142 159 203 218 224 249 272 286 345 343 285 70 359 300 283 287 306 299 286 292 284 265 252 232 267 275 264 265 266 267 274 283 288 289 288
241 245 248 247 255 266 279 291 288 273 268 266 254 246 246 218 178 101 245 263 279 223 196 213 212 188 173 172 174 172 182 223 180 158 135 190 172 163 158 136 140 177 208 185 207 271 280 68 107 140 178 192 181 173 182 225 247 216 230 258 286 325 319 273 320 329 304 259 263 296 286 271 274 231 250 223 166 267 267 261 265 262 266 278 283 284 280 281
236 238 241 243 249 260 276 286 281 266 261 260 254 247 233 216 195 196 284 274 255 260 232 213 203 195 163 129 152 164 146 180 154 85 45 99 156 153 123 114 232 206 163 144 204 259 252 90 156 167 168 204 215 219 203 222 283 258 217 239 281 305 299 291 324 333 308 238 154 317 302 283 149 237 267 264 253 276 261 250 267 281 304 307 299 295 293 293
231 232 235 241 242 248 265 275 267 259 250 250 252 236 211 206 209 225 250 293 249 204 133 193 182 173 160 131 144 159 164 194 103 64 69 69 146 178 151 134 259 262 141 151 246 277 110 111 201 196 174 186 224 252 201 187 278 307 197 227 260 297 299 303 328 336 304 306 4 340 307 299 303 288 283 302 301 288 279 272 287 312 316 309 302 298 302 305
227 227 231 238 234 230 228 228 236 218 216 249 241 217 197 199 216 249 264 280 252 165 125 201 235 163 160 147 215 174 189 170 108 86 69 51 76 184 203 174 173 124 139 188 273 154 139 155 188 192 190 206 241 256 181 178 267 310 94 333 289 296 294 300 312 255 279 316 315 353 317 289 293 294 239 333 306 287 281 290 310 318 308 307 307 304 309 311
223 223 227 231 226 224 220 222 230 193 222 277 230 200 189 196 224 280 260 259 265 107 108 116 90 116 129 115 183 142 350 56 133 131 57 43 63 152 224 207 166 116 125 225 269 51 135 187 193 169 181 234 258 315 156 176 256 18 109 28 344 299 282 282 263 227 280 306 247 126 14 280 278 285 223 203 279 284 290 301 307 304 304 311 316 316 316 314
219 217 220 222 219 224 230 239 235 202 228 280 194 184 179 192 223 52 244 247 240 87 77 117 125 96 100 146 125 75 93 12 38 85 95 79 50 54 192 167 120 109 109 234 265 355 71 254 217 175 188 249 249 51 154 191 241 59 141 138 107 117 114 99 112 151 238 272 202 112 25 316 289 287 281 227 278 299 311 314 308 304 308 319 326 323 319 315
217 213 212 212 209 215 225 240 238 215 215 244 176 168 176 199 215 191 221 237 206 95 71 131 154 135 138 152 155 135 167 99 48 66 152 133 58 50 59 47 94 126 121 255 257 13 65 347 287 231 230 339 65 73 154 232 304 331 263 228 161 131 99 106 95 93 234 249 118 110 66 11 305 286 293 328 320 319 319 316 315 315 320 330 333 325 321 318
213 210 207 207 209 211 207 233 237 218 214 211 169 159 175 158 116 206 221 247 211 135 130 147 143 137 155 165 162 156 169 145 127 184 168 148 109 104 144 190 156 160 190 202 204 148 139 206 241 266 183 84 162 175 124 234 292 298 273 258 245 192 151 160 127 118 268 285 106 116 33 333 262 274 310 319 335 312 309 310 312 316 323 332 330 325 324 319
210 208 207 207 210 213 203 199 222 203 205 189 160 159 157 176 232 219 228 298 212 177 154 153 163 164 167 180 148 142 158 163 164 201 172 163 188 167 185 215 173 220 243 188 167 175 191 204 226 23 201 216 236 230 155 153 224 260 258 274 295 315 347 299 203 197 267 325 114 142 330 262 240 258 291 305 314 252 282 286 299 315 326 329 324 321 321 316
207 204 204 206 208 213 214 218 210 183 183 171 158 135 111 219 232 192 183 252 257 108 73 97 102 145 154 165 176 152 150 183 151 169 160 126 209 196 225 345 175 261 272 138 42 270 194 142 162 201 180 190 233 263 259 180 247 290 286 312 334 2 346 319 316 290 290 350 128 171 242 265 267 264 274 304 317 242 260 266 289 324 331 325 320 316 317 316
204 201 200 202 206 213 217 222 230 194 170 164 163 111 161 228 233 153 181 218 354 29 41 81 100 118 152 180 210 174 182 197 151 153 169 155 196 214 203 196 201 220 96 154 277 289 246 256 159 183 146 153 205 293 342 37 67 33 313 312 336 60 322 303 318 311 304 316 265 180 218 254 293 332 32 310 275 248 251 267 310 336 334 327 322 320 321 322
201 197 195 196 201 206 209 216 220 193 173 167 154 163 201 221 197 140 186 181 130 142 53 44 110 127 191 261 317 247 239 197 149 160 180 177 198 210 188 186 194 191 153 180 178 122 243 269 81 79 360 155 185 284 354 75 121 124 222 278 318 75 263 272 339 346 323 314 283 202 257 254 270 304 318 251 239 249 257 286 331 340 340 334 327 328 333 335
192 188 189 190 194 197 200 207 205 186 182 169 168 201 218 220 158 167 185 137 150 149 121 127 145 148 214 229 187 225 267 130 170 189 197 202 226 216 199 175 181 196 187 168 177 161 237 263 89 99 126 75 344 326 24 327 307 148 186 209 68 26 280 257 6 94 128 269 276 231 274 278 279 286 266 179 237 272 297 323 342 345 346 338 327 333 343 346
181 179 183 187 191 191 190 197 192 182 187 176 199 213 217 202 176 178 164 123 127 135 139 177 190 175 201 212 194 186 180 182 178 191 196 194 220 192 183 200 173 197 237 275 199 184 246 220 115 132 132 87 330 251 91 20 315 249 199 126 115 97 322 282 277 284 195 244 258 220 272 286 305 296 182 197 281 307 326 339 343 347 352 343 332 339 347 352
174 173 180 189 189 184 178 182 178 170 160 180 222 231 205 184 202 155 147 140 117 123 165 200 204 191 193 198 186 160 170 186 165 176 200 194 223 167 156 177 162 153 279 299 225 143 229 236 124 82 130 107 209 237 135 78 18 340 108 123 130 265 197 173 284 322 308 291 284 247 271 272 244 257 294 297 308 320 330 342 346 348 352 343 333 338 348 357
163 166 195 190 186 181 171 165 156 155 179 195 222 237 186 185 229 174 173 156 118 142 185 207 208 186 185 176 144 153 184 189 161 174 211 188 207 170 146 158 145 146 262 270 214 135 156 250 194 132 106 112 185 229 209 138 91 47 148 136 26 308 305 301 349 348 275 302 313 306 319 289 221 217 282 289 308 320 325 335 340 342 345 336 330 335 345 358
153 160 264 176 178 177 162 148 134 164 216 214 222 229 165 188 226 221 230 213 122 160 184 199 189 168 176 160 114 176 193 198 172 182 221 190 208 208 176 141 136 147 183 360 254 146 129 235 238 130 155 233 199 207 226 175 138 160 195 176 153 142 33 283 154 104 266 285 307 308 305 293 263 186 239 261 299 320 319 321 314 323 339 331 324 328 342 1
149 162 214 171 171 165 150 140 140 176 212 265 258 228 174 204 202 183 256 280 16 359 135 161 176 174 164 159 203 179 163 186 192 193 216 204 224 213 174 144 148 149 142 138 192 213 158 182 214 156 192 222 190 36 351 342 20 196 207 192 174 152 150 236 233 101 345 264 257 304 295 288 281 175 223 228 216 306 310 308 297 292 330 329 316 318 339 1
166 173 190 169 165 157 146 154 185 153 200 245 253 256 245 287 230 186 178 209 15 18 68 119 165 176 170 163 161 156 155 173 187 195 220 214 217 204 23 15 152 149 140 125 131 235 130 117 210 213 197 180 48 44 8 326 305 292 309 187 145 139 174 230 255 191 156 188 26 47 278 275 246 158 218 195 176 305 307 289 281 242 311 323 313 310 329 351
173 132 106 166 164 159 148 156 177 174 217 208 147 283 260 278 253 193 179 204 190 136 159 194 185 192 199 161 130 160 182 188 182 184 213 220 203 24 342 278 167 149 148 133 131 170 169 138 207 255 183 112 84 108 123 342 267 225 241 167 160 153 168 230 345 144 178 185 164 147 251 266 215 155 221 206 211 262 269 275 298 104 258 311 317 309 313 328
145 93 45 172 175 176 173 174 188 200 210 197 183 211 224 254 230 196 191 203 190 153 165 193 206 196 189 146 136 173 191 194 198 197 193 200 180 47 5 263 212 185 189 197 160 175 192 177 176 250 285 191 169 161 168 173 217 230 209 158 167 113 93 95 123 123 254 201 176 191 252 263 210 151 188 201 243 266 226 216 310 192 236 301 316 309 300 298
127 128 38 180 191 205 208 188 189 197 203 212 214 202 193 216 223 212 215 207 187 174 169 184 200 150 137 140 114 159 186 193 202 190 156 171 173 36 24 323 288 240 229 322 301 195 194 195 175 196 237 236 241 272 274 145 163 213 196 174 175 146 141 159 144 169 244 191 171 209 246 273 289 274 246 217 290 305 297 151 315 230 214 270 282 293 293 278
143 164 123 78 246 257 258 200 131 191 203 207 215 209 203 211 223 217 218 214 190 176 162 89 163 129 138 164 150 164 190 216 38 165 173 176 173 25 14 355 338 286 253 321 313 186 120 228 230 222 232 241 255 341 80 113 148 175 180 182 185 179 169 140 133 198 204 160 195 227 238 276 288 284 288 300 315 312 310 326 337 303 230 244 261 275 279 264
161 167 166 145 174 227 249 249 202 206 202 190 191 196 200 208 212 183 200 223 199 164 165 39 164 179 178 163 164 187 177 144 123 174 168 144 133 38 22 18 347 288 259 278 309 95 125 214 230 223 239 260 23 90 158 189 222 199 177 183 186 185 174 173 203 203 136 148 252 238 212 248 270 274 284 295 305 305 303 309 324 313 297 273 260 263 264 251
177 150 177 168 169 195 206 212 204 202 202 194 198 200 200 205 206 199 194 190 66 189 201 219 201 200 185 165 169 181 158 155 195 183 162 139 151 140 102 139 223 225 224 237 300 135 166 231 211 188 249 275 320 221 201 214 248 228 209 204 187 182 184 198 217 206 154 213 253 243 170 232 264 278 283 287 292 292 294 302 312 295 281 271 262 256 256 245
162 73 167 189 194 189 196 200 190 191 197 193 209 219 209 206 207 208 183 104 171 223 215 221 215 199 186 172 171 177 175 185 202 200 184 158 154 154 134 171 188 166 178 184 196 221 192 207 135 142 275 283 257 238 208 211 249 252 232 222 201 195 197 205 223 215 197 235 256 265 266 266 269 272 275 280 290 290 288 291 280 267 255 245 253 250 247 241
178 163 153 185 230 186 193 193 169 183 197 192 212 225 217 215 212 208 175 163 189 173 194 229 220 183 185 187 185 202 202 188 189 193 177 161 165 191 193 182 150 141 192 191 160 265 242 180 109 110 283 278 267 323 199 211 243 259 250 232 210 209 209 215 230 222 213 246 257 266 281 279 267 261 263 271 285 293 278 264 247 249 232 216 245 250 243 238
225 194 156 156 191 172 177 182 170 183 191 189 211 219 216 223 217 204 205 211 202 180 185 211 207 169 183 198 201 216 210 182 187 193 174 174 186 193 190 168 146 150 176 190 158 178 211 183 94 117 246 266 36 78 216 222 254 263 264 241 208 203 203 209 216 203 199 221 234 240 256 258 256 256 257 255 252 259 261 251 230 237 216 198 233 248 243 236
315 208 163 162 187 177 173 176 176 186 189 196 210 211 211 221 211 192 215 226 217 213 206 203 194 166 181 206 211 217 194 153 169 173 154 168 148 118 153 150 144 150 162 170 161 159 178 171 141 166 219 256 108 159 289 311 275 259 259 230 198 195 200 207 215 213 208 202 181 201 228 237 234 158 193 224 218 235 250 242 216 228 216 194 214 238 245 238